Lake Oliver Weather Center

Moon Phase Calendar



Lake Oliver Water Level
Online Cameras

 


      

Current Conditions in Smiths
4/15/2024 6:19:33 AM

55°F
Feels Like 54
Clear
Humidity
88%
Pressure
30.06"
Wind
0
Dew Point
51°F
UV Index
0/10 (Low)
Visibility
6 mi

Hourly Forecast

Date & Time Mon, Apr 15
6:00 AM
Mon, Apr 15
7:00 AM
Mon, Apr 15
8:00 AM
Mon, Apr 15
9:00 AM
Mon, Apr 15
10:00 AM
Mon, Apr 15
11:00 AM
Mon, Apr 15
12:00 PM
Mon, Apr 15
1:00 PM
Mon, Apr 15
2:00 PM
Mon, Apr 15
3:00 PM
Mon, Apr 15
4:00 PM
Mon, Apr 15
5:00 PM
Mon, Apr 15
6:00 PM
Mon, Apr 15
7:00 PM
Mon, Apr 15
8:00 PM
Mon, Apr 15
9:00 PM
Mon, Apr 15
10:00 PM
Mon, Apr 15
11:00 PM
Tue, Apr 16
12:00 AM
Tue, Apr 16
1:00 AM
Tue, Apr 16
2:00 AM
Tue, Apr 16
3:00 AM
Tue, Apr 16
4:00 AM
Tue, Apr 16
5:00 AM
Tue, Apr 16
6:00 AM
Tue, Apr 16
7:00 AM
Tue, Apr 16
8:00 AM
Tue, Apr 16
9:00 AM
Tue, Apr 16
10:00 AM
Tue, Apr 16
11:00 AM
Tue, Apr 16
12:00 PM
Tue, Apr 16
1:00 PM
Tue, Apr 16
2:00 PM
Tue, Apr 16
3:00 PM
Tue, Apr 16
4:00 PM
Tue, Apr 16
5:00 PM
Tue, Apr 16
6:00 PM
Tue, Apr 16
7:00 PM
Tue, Apr 16
8:00 PM
Tue, Apr 16
9:00 PM
Tue, Apr 16
10:00 PM
Tue, Apr 16
11:00 PM
Wed, Apr 17
12:00 AM
Wed, Apr 17
1:00 AM
Wed, Apr 17
2:00 AM
Wed, Apr 17
3:00 AM
Wed, Apr 17
4:00 AM
Wed, Apr 17
5:00 AM
Condition
Clear

Clear

Clouds

Clear

Clear

Clear

Clear

Clear

Clear

Clouds

Clouds

Clouds

Clouds

Clouds

Clouds

Clouds

Clouds

Clouds

Clouds

Clouds

Clouds

Clouds

Clouds

Clouds

Clouds

Clouds

Clouds

Clouds

Clouds

Clouds

Clouds

Clouds

Clouds

Clouds

Clouds

Clouds

Clouds

Clouds

Clouds

Clouds

Clouds

Clouds

Clouds

Clouds

Clouds

Clouds

Clouds

Clouds
Temperature 55°F55°F56°F60°F66°F73°F76°F79°F81°F81°F82°F82°F81°F77°F71°F68°F65°F64°F63°F63°F61°F61°F61°F60°F60°F59°F60°F64°F68°F69°F72°F75°F78°F80°F82°F81°F79°F74°F70°F69°F67°F67°F65°F64°F63°F61°F61°F61°F
Feels Like 54°F54°F55°F59°F65°F72°F75°F79°F80°F80°F81°F81°F80°F76°F70°F67°F65°F64°F63°F62°F61°F60°F60°F59°F59°F57°F59°F63°F67°F68°F71°F75°F77°F80°F81°F81°F79°F74°F70°F68°F67°F67°F65°F64°F63°F61°F60°F61°F
Cloudiness 0%10%17%0%0%0%0%0%1%100%100%81%63%53%60%87%45%35%29%43%52%100%100%100%100%100%100%96%98%99%99%99%99%98%85%82%85%88%90%100%100%100%100%100%100%100%100%100%
Visibility 6 mi6 mi6 mi6 mi6 mi6 mi6 mi6 mi6 mi6 mi6 mi6 mi6 mi6 mi6 mi6 mi6 mi6 mi6 mi6 mi6 mi6 mi6 mi6 mi6 mi6 mi6 mi6 mi6 mi6 mi6 mi6 mi6 mi6 mi6 mi6 mi6 mi6 mi6 mi6 mi6 mi6 mi6 mi6 mi6 mi6 mi6 mi6 mi
Precipitation 0%0%0%0%0%0%0%0%0%0%0%0%0%0%0%0%0%0%0%0%0%0%0%0%0%0%0%0%0%0%0%0%0%0%0%0%0%0%0%0%0%0%0%0%0%0%0%0%
Humidity 88%87%84%75%62%47%40%35%32%32%31%32%38%49%59%62%69%70%71%72%74%73%69%67%66%66%67%59%51%49%45%41%40%39%37%39%47%59%69%72%75%75%79%79%80%83%81%76%
Dew Point 51°F51°F51°F52°F52°F51°F50°F49°F48°F48°F48°F49°F53°F56°F55°F54°F54°F54°F53°F53°F53°F52°F50°F49°F48°F47°F49°F49°F49°F49°F49°F50°F51°F52°F53°F54°F57°F59°F59°F59°F59°F58°F58°F57°F56°F55°F54°F53°F
Pressure 30.06"30.06"30.09"30.09"30.12"30.12"30.12"30.09"30.06"30.06"30.03"30.03"30.03"30.03"30.03"30.06"30.06"30.09"30.09"30.09"30.09"30.09"30.09"30.09"30.09"30.12"30.12"30.15"30.15"30.12"30.12"30.09"30.09"30.06"30.03"30.03"30.03"30.03"30.06"30.06"30.09"30.09"30.09"30.09"30.06"30.06"30.06"30.06"
Wind Speed 2.4 mph2.7 mph2.7 mph3.9 mph4.2 mph4.9 mph5.6 mph6.5 mph6.9 mph7.6 mph7.3 mph8 mph7.2 mph5.7 mph4.4 mph4.3 mph3.5 mph2.6 mph3.7 mph3.2 mph3.2 mph2.1 mph2.6 mph1.3 mph2.1 mph0.8 mph0.9 mph2.4 mph3.6 mph5.8 mph7 mph8.7 mph8.9 mph8.2 mph10 mph10.9 mph9.9 mph6.6 mph4.2 mph4.2 mph5.3 mph5.8 mph4.6 mph4.3 mph4.1 mph3.2 mph3.3 mph3.3 mph
Wind
Direction
256°
WSW
278°
W
276°
W
275°
W
249°
WSW
244°
WSW
235°
SW
221°
SW
217°
SW
214°
SW
216°
SW
221°
SW
218°
SW
222°
SW
216°
SW
216°
SW
208°
SSW
205°
SSW
222°
SW
214°
SW
193°
SSW
235°
SW
228°
SW
217°
SW
243°
WSW
188°
S
221°
SW
196°
SSW
179°
S
148°
SSE
184°
S
177°
S
184°
S
176°
S
184°
S
185°
S
190°
S
196°
SSW
197°
SSW
183°
S
180°
S
202°
SSW
203°
SSW
193°
SSW
209°
SSW
227°
SW
194°
SSW
178°
S

Daily Forecast

Date High Low Precip. Humidity
Today
Apr 15

Clear
82 °F
55 °F
0%
35%
Tuesday
Apr 16

Clouds
82 °F
59 °F
0%
41%
Wednesday
Apr 17

Clouds
80 °F
60 °F
0%
51%
Thursday
Apr 18

Rain
86 °F
64 °F
20%
47%
Friday
Apr 19

Rain
80 °F
67 °F
100%
71%
Saturday
Apr 20

Rain
83 °F
64 °F
100%
56%
Sunday
Apr 21

Rain
72 °F
54 °F
100%
64%
Monday
Apr 22

Clouds
62 °F
53 °F
80%
73%
Tuesday
Apr 23

Clear
73 °F
51 °F
0%
46%
Wednesday
Apr 24

Clear
79 °F
57 °F
0%
47%
Thursday
Apr 25

Rain
69 °F
62 °F
100%
96%
Friday
Apr 26

Rain
72 °F
65 °F
100%
95%
Saturday
Apr 27

Rain
84 °F
62 °F
77%
49%
Sunday
Apr 28

Rain
78 °F
65 °F
39%
64%
Monday
Apr 29

Clouds
83 °F
64 °F
0%
54%
Tuesday
Apr 30

Clouds
86 °F
66 °F
0%
51%

Temperature 8-14 Day Outlook



Precipitation 8-14 Day Outlook




Quick Links
Lake Oliver News
Lake Oliver Photos
Lake Oliver Videos




About Us
Contact Us
Site Map
Search Site
Advertise With Us
   
Oliver.USLakes.info
THE LAKE OLIVER WEBSITE

Copyright 2024, Lakes Online
Privacy    |    Legal